Regional Weather Roundup
Issued by NWS

Home | Current Version | Previous Version | Text Only | Print | Product List | Glossary On
Versions: 1 2 3 4 5 6 7 8 9 10 11 12 13 14 15 16 17 18 19 20 21 22 23 24 25 26 27 28 29 30 31 32 33 34 35 36 37 38 39 40 41 42 43 44 45 46 47 48 49 50
000
ASPQ40 PGUM 280714
RWRPQ
WEATHER ROUNDUP FOR THE MARIANAS AND MICRONESIA
NATIONAL WEATHER SERVICE TIYAN GU
500 PM CHST THU MAY 28 2015

GUZ001>004-280800-
MARIANA ISLANDS-

CITY           SKY/WX    TMP DP  RH WIND       PRES   REMARKS
GUAM AIRPORT   MOSUNNY   82  79  89 E8        29.81R HX  93
ANDERSEN AFB   PTSUNNY   81  77  89 E14       29.81S
ROTA AIRPORT   NOT AVBL
TINIAN AP      NOT AVBL
SAIPAN AP      MOSUNNY   82  77  83 E7        29.83R HX  91

$$

PMZ161-280800-
REPUBLIC OF PALAU-

CITY           SKY/WX    TMP DP  RH WIND       PRES   REMARKS
KOROR AP       SHOWER    79  77  94 SW9       29.79S
KOROR WSO      CLOUDY    84  77  79 SW8       29.78S HX  94

$$

PMZ171>174-280800-
FEDERATED STATES OF MICRONESIA-

CITY           SKY/WX    TMP DP  RH WIND       PRES   REMARKS
YAP AIRPORT    PTSUNNY   84  75  74 VRB6      29.77S HX  92
CHUUK AP       MOSUNNY   88  81  79 S8        29.81R HX 105
POHNPEI AP     NOT AVBL
POHNPEI WSO    MOCLDY    82  75  78 E3        29.86R
KOSRAE AP      NOT AVBL

$$

PMZ181-280800-
REPUBLIC OF THE MARSHALL ISLANDS-

CITY           SKY/WX    TMP DP  RH WIND       PRES   REMARKS
KWAJALEIN AP   CLOUDY    82  73  74 N6        29.86R
MAJURO AP      NOT AVBL
MAJURO WSO     MOCLDY    82  77  83 E9        29.83R HX  91

$$



USA.gov is the U.S. government's official web portal to all federal, state and local government web resources and services.